Content
SEND FEEDBACK

Daily
Averages
Monthly
Summary
Brazil

GOIANIA, GOIÁS


Home > South America > Brazil > Goiás
Elevation: 2450 feet     Latitude: 16 38S     Longitude: 049 13W

WEATHER
 
SELECT A DAY
Number of Records: 99,099;   Date Range: 6/30/96 - 11/22/14
 
SHARE

PRINT THIS DATA

[ ← Previous Day ]
WEATHER ALMANAC - FEBRUARY 13, 2013
[ Next Day → ]
[ °C ]   °F
Weather ElementAverageHighLow
Temperature78.6 °F89.6 °F (2:00 pm)68 °F (4:00 am)
Dewpoint60.6 °F64.4 °F (1:00 am)51.8 °F (4:00 pm)
Humidity58.4 %88 % (5:00 am)27 % (4:00 pm)
Barometer29.97 in30.04 in (10:00 am)29.89 in (6:00 pm)
Wind Speed4.2 mph10.4 mph (6:00 pm)
Weather ElementAverage
Visibility6.2 mi
Wind DirectionSSE (164.3 °)

Weather ElementTotal
Precipitation---
Cooling Degree Days13.8 (Base 65)
Growing Degree Days28.8 (Base 50)
Averaged from 23 records on February 13, 2013
WEATHER CONDITIONS BREAKOUT
WIND DIRECTION BREAKOUT
WEATHER BY HOUR - FEBRUARY 13, 2013
[ °C ]   °F
Local TimeTemperatureDewpointHumidityBarometerVisibilityWind DirectionWind SpeedGust SpeedPrecipitationEventsConditions
1:00 AM71.6 °F64.4 °F78 %29.98 inNW (320°)3.5 mphClear
2:00 AM71.6 °F64.4 °F78 %29.98 inNNW (340°)3.5 mphClear
3:00 AM69.8 °F64.4 °F83 %29.98 inCalmClear
4:00 AM68.0 °F62.6 °F83 %29.95 inNNW (330°)2.3 mphClear
5:00 AM68.0 °F64.4 °F88 %29.98 inNW (310°)2.3 mphClear
6:00 AM68.0 °F62.6 °F83 %29.98 inCalmClear
7:00 AM68.0 °F62.6 °F83 %29.98 inNorth (360°)3.5 mphClear
8:00 AM68.0 °F62.6 °F83 %30.01 inWNW (300°)2.3 mphClear
9:00 AM71.6 °F64.4 °F78 %30.01 inSSE (150°)2.3 mphClear
10:00 AM77.0 °F62.6 °F61 %30.04 inSSE (150°)3.5 mphClear
11:00 AM80.6 °F62.6 °F54 %30.04 inESE (120°)3.5 mphClear
12:00 PM86.0 °F64.4 °F48 %30.01 inNorth (360°)3.5 mphClear
1:00 PM87.8 °F53.6 °F31 %30.01 in6.2 miEast (100°)6.9 mphPartly Cloudy
2:00 PM89.6 °F55.4 °F31 %30.01 in6.2 miEast (90°)4.6 mphScattered Clouds
3:00 PM89.6 °F57.2 °F33 %29.98 in6.2 miESE (110°)5.8 mphScattered Clouds
4:00 PM89.6 °F51.8 °F27 %29.95 in6.2 miENE (60°)5.8 mphPartly Cloudy
5:00 PM89.6 °F51.8 °F27 %29.92 in6.2 miESE (120°)5.8 mphPartly Cloudy
6:00 PM87.8 °F57.2 °F35 %29.89 in6.2 miEast (80°)10.4 mphPartly Cloudy
7:00 PM87.8 °F57.2 °F35 %29.89 in6.2 miEast (90°)9.2 mphPartly Cloudy
8:00 PM82.4 °F59.0 °F45 %29.89 in6.2 miESE (110°)8.1 mphPartly Cloudy
9:00 PM80.6 °F62.6 °F54 %29.92 inESE (120°)4.6 mphClear
10:00 PM77.0 °F64.4 °F65 %29.95 inEast (80°)2.3 mphClear
11:00 PM77.0 °F62.6 °F61 %29.98 inEast (80°)2.3 mphClear
Hourly data recorded from SBGO, located miles away from Goiania, Goiás







STORIES FROM OUR PARTNERS